Weather History for KIZG - June, 2013

Change the Weather History Date:

Wednesday, June 26, 2013

  Actual Average Record
Temperature  
Mean Temperature 68 °F -  
Max Temperature 75 °F 79 °F 96 °F (2003)
Min Temperature 60 °F 52 °F 48 °F (2004)
Cooling Degree Days 3    
Growing Degree Days 18 (Base 50)    
Moisture  
Dew Point 66 °F    
Average Humidity 92    
Maximum Humidity 100    
Minimum Humidity 74    
Precipitation  
Precipitation 0.03 in - - ()
Sea Level Pressure  
Sea Level Pressure 29.78 in    
Wind  
Wind Speed 1 mph (ESE)    
Max Wind Speed 14 mph    
Max Gust Speed 22 mph    
Visibility 8 miles    
Events Fog , Rain    
Averages and records for this station are not official NWS values.
T = Trace of Precipitation, MM = Missing Value Source: NWS Daily Summary

Daily Weather History Graph

Daily Weather History Graph

Search for Another Location

Airport or City:

Trip Planner

Search our weather history database for the weather conditions in past years. The results will help you decide how hot, cold, wet, or windy it might be!

Date:

Astronomy

Jun. 26, 2013 Rise Set
Actual Time 5:02 AM EDT 8:30 PM EDT
Civil Twilight 4:26 AM EDT 9:07 PM EDT
Nautical Twilight 3:38 AM EDT 9:54 PM EDT
Astronomical Twilight 2:37 AM EDT 10:55 PM EDT
Moon 10:42 PM EDT (6/26) 8:58 AM EDT (6/26)
Length of Visible Light 16h 40m
Length of Day
15h 28m
Waning Gibbous, 85% of the Moon is Illuminated
Jun 26
Waning Gibbous
Jun 30
Last Quarter
Jul 8
New
Jul 15
First Quarter
Jul 22
Full

Hourly Weather History & Observations

Time (EDT) Temp. Dew Point Humidity Pressure Visibility Wind Dir Wind Speed Gust Speed Precip Events Conditions
12:15 AM 68.0 °F 68.0 °F 100% 29.75 in 10.0 mi Calm Calm - N/A   Overcast
12:33 AM 68.0 °F 66.2 °F 94% 29.75 in 10.0 mi Calm Calm - N/A   Overcast
12:54 AM 66.9 °F 66.0 °F 97% 29.74 in 6.0 mi Calm Calm - N/A   Overcast
1:00 AM 66.2 °F 66.2 °F 100% 29.75 in 1.8 mi Calm Calm - N/A   Overcast
1:02 AM 66.2 °F 66.2 °F 100% 29.75 in 1.2 mi Calm Calm - N/A   Overcast
1:10 AM 66.2 °F 66.2 °F 100% 29.75 in 0.5 mi Calm Calm - N/A Fog Fog
1:18 AM 66.2 °F 66.2 °F 100% 29.75 in 0.8 mi Calm Calm - N/A   Mist
1:25 AM 66.2 °F 66.2 °F 100% 29.75 in 1.0 mi Calm Calm - N/A   Mist
1:31 AM 66.2 °F 66.2 °F 100% 29.75 in 1.5 mi Calm Calm - N/A   Overcast
1:36 AM 66.2 °F 66.2 °F 100% 29.75 in 3.0 mi Calm Calm - N/A   Overcast
1:54 AM 66.0 °F 64.9 °F 96% 29.73 in 10.0 mi Calm Calm - N/A   Mostly Cloudy
2:02 AM 66.2 °F 64.4 °F 94% 29.74 in 10.0 mi Calm Calm - N/A   Mostly Cloudy
2:54 AM 66.0 °F 64.9 °F 96% 29.73 in 7.0 mi Calm Calm - N/A   Overcast
3:21 AM 64.4 °F 64.4 °F 100% 29.73 in 7.0 mi Calm Calm - N/A   Overcast
3:29 AM 66.2 °F 64.4 °F 94% 29.73 in 5.0 mi Calm Calm - N/A   Overcast
3:54 AM 66.0 °F 64.9 °F 96% 29.73 in 5.0 mi Calm Calm - N/A   Overcast
4:54 AM 66.0 °F 64.9 °F 96% 29.73 in 10.0 mi Calm Calm - N/A   Overcast
5:15 AM 66.2 °F 64.4 °F 94% 29.75 in 10.0 mi Calm Calm - N/A   Overcast
5:54 AM 66.0 °F 64.9 °F 96% 29.75 in 7.0 mi Calm Calm - N/A   Overcast
6:54 AM 69.1 °F 66.9 °F 93% 29.76 in 10.0 mi Calm Calm - N/A   Clear
7:54 AM 70.0 °F 68.0 °F 93% 29.76 in 10.0 mi Calm Calm - N/A   Clear
8:54 AM 71.1 °F 68.0 °F 90% 29.78 in 10.0 mi Calm Calm - N/A   Clear
9:54 AM 72.0 °F 68.0 °F 87% 29.78 in 10.0 mi Calm Calm - N/A   Mostly Cloudy
10:54 AM 73.9 °F 68.0 °F 82% 29.78 in 10.0 mi Calm Calm - N/A   Clear
11:54 AM 73.9 °F 68.0 °F 82% 29.79 in 10.0 mi Calm Calm - 0.00 in Rain Light Rain
12:54 PM 75.9 °F 66.9 °F 74% 29.78 in 10.0 mi Calm Calm - 0.00 in   Mostly Cloudy
1:54 PM 75.0 °F 68.0 °F 79% 29.79 in 10.0 mi Calm Calm - 0.01 in Rain Light Rain
2:54 PM 73.0 °F 69.1 °F 87% 29.79 in 10.0 mi Calm Calm - 0.01 in Rain Light Rain
3:54 PM 72.0 °F 68.0 °F 87% 29.79 in 10.0 mi West 3.5 mph - 0.01 in Rain Light Rain
4:54 PM 73.0 °F 68.0 °F 84% 29.78 in 10.0 mi SSE 3.5 mph - 0.00 in   Partly Cloudy
5:54 PM 72.0 °F 69.1 °F 91% 29.80 in 10.0 mi WNW 3.5 mph - 0.00 in Rain Light Rain
6:03 PM 71.6 °F 69.8 °F 94% 29.80 in 10.0 mi NW 4.6 mph - 0.00 in   Overcast
6:26 PM 75.2 °F 68.0 °F 78% 29.80 in 10.0 mi Calm Calm - 0.00 in   Overcast
6:47 PM 69.8 °F 66.2 °F 88% 29.82 in 10.0 mi East 13.8 mph 21.9 mph 0.00 in   Mostly Cloudy
6:54 PM 68.0 °F 64.9 °F 90% 29.82 in 10.0 mi ESE 13.8 mph 20.7 mph 0.00 in   Mostly Cloudy
7:01 PM 66.2 °F 64.4 °F 94% 29.83 in 10.0 mi East 10.4 mph 19.6 mph N/A   Mostly Cloudy
7:54 PM 63.0 °F 60.1 °F 90% 29.86 in 10.0 mi SE 9.2 mph - N/A   Overcast
8:54 PM 62.1 °F 60.1 °F 93% 29.87 in 10.0 mi East 4.6 mph - N/A   Overcast
9:54 PM 61.0 °F 59.0 °F 93% 29.88 in 10.0 mi Variable 4.6 mph - N/A   Overcast
10:54 PM 62.1 °F 60.1 °F 93% 29.88 in 10.0 mi SE 4.6 mph - N/A   Overcast
11:54 PM 60.1 °F 59.0 °F 96% 29.88 in 7.0 mi ESE 5.8 mph - N/A   Overcast